User: anonymous   Login
Location: Ostrava
(49.8330°N, 18.2830°E)
Time: 21:32:43
(UTC+02:00)
Language:

Lacrosse 5 - Orbit

View from above orbital plane
View from above orbital plane
View from above satellite
View from above satellite

Ground track
Ground track

The orbit data is extracted from the following two-line orbital elements,

1 28646U 05016A   16159.90622097 0.00000000  00000-0  00000-0 0    08
2 28646  57.0130  82.7725 0004500 144.2241 215.7759 14.51932432    02
Epoch (UTC): 07 June 2016 21:44:57
Eccentricity: 0.0004500
inclination: 57.0130°
perigee height: 716 km
apogee height: 722 km
right ascension of ascending node: 82.7725°
argument of perigee: 144.2241°
revolutions per day: 14.51932432
mean anomaly at epoch: 215.7759°
orbit number at epoch: 0

The dashed part of the orbit path shows where the satellite is in the earth's shadow,  

DLR